Home > Weather > Alsfeld > Past weeks

Flag for Germany Weather for the Past 2 Weeks in Alsfeld, Hesse, Germany

Now
71 °F

Mild.


Feels Like: 77 °F
Forecast: 48 / 70 °F
Wind: 5 mph from Southeast

Location: Fritzlar

Current Time: May 6, 2016 at 9:22:30 PM

Latest Report: May 6, 2016 at 7:00 PM


Visibility: 22 mi

Pressure: 29.92 "Hg

Humidity: 40%

Dew Point: 46 °F

Location of AlsfeldLocation

Historic Weather in Alsfeld — Graph

°F

Alsfeld Temperature Yesterday

Maximum temperature yesterday: 65 °F (at 6:00 PM)
Minimum temperature yesterday: 33 °F (at 6:00 AM)
Average temperature yesterday: 50 °F

High & Low Weather Summary for the Past Weeks

 TemperatureHumidityPressure
High74 °F (May 6, 4:00 PM)94% (May 6, 4:00 AM)30.43 "Hg (May 6, 4:00 AM)
Low28 °F (Apr 24, 6:00 AM)23% (Apr 21, 7:00 PM)29.50 "Hg (Apr 26, 3:00 PM)
Average46 °F67%30.04 "Hg
* Reported Apr 21 7:00 PM — May 6 7:00 PM, Alsfeld, Weather by CustomWeather, © 2016

Note: Actual official high and low records may vary slightly from our data, if they occured in-between our weather recording intervals... More about our weather records

Advertising

Alsfeld Weather History for the Previous 24 Hours

Scroll right to see more
 ConditionsComfort  
Time TempWeatherWind HumidityBarometerVisibility
7:00 PM
Fri, May 6
71 °FMild.5 mph40%29.92 "Hg22 mi
6:00 PM74 °FMild.6 mph32%29.93 "Hg34 mi
4:00 PM74 °FMild.6 mph31%29.95 "Hg31 mi
3:00 PM73 °FMild.5 mph36%29.98 "Hg19 mi
1:00 PM70 °FScattered clouds.6 mph40%30.01 "Hg31 mi
12:00 PM68 °FScattered clouds.6 mph46%30.03 "Hg28 mi
10:00 AM62 °FPartly sunny.3 mph61%30.06 "Hg25 mi
9:00 AM57 °FPartly sunny.2 mph68%30.09 "Hg22 mi
7:00 AM42 °FPartly sunny.1 mph94%30.12 "Hg19 mi
6:00 AM40 °FPartly sunny.2 mph94%30.13 "Hg19 mi
4:00 AM42 °FClear.2 mph94%30.15 "Hg25 mi
3:00 AM42 °FClear.2 mph93%30.16 "Hg25 mi
1:00 AM44 °FClear.1 mph89%30.17 "Hg25 mi
12:00 AM46 °FClear.2 mph85%30.17 "Hg25 mi
10:00 PM
Thu, May 5
55 °FPassing clouds.N/A63%30.16 "Hg25 mi
9:00 PM59 °FPassing clouds.3 mph51%30.15 "Hg31 mi
Weather by CustomWeather, © 2016

See weather overviewHow to use our weather pages